Regional Weather Roundup
Issued by NWS

Home | Current Version | Previous Version | Text Only | Print | Product List | Glossary Off
Versions: 1 2 3 4 5 6 7 8 9 10 11 12 13 14 15 16 17 18 19 20 21 22 23 24 25 26 27 28 29 30 31 32 33 34 35 36 37 38 39 40 41 42 43 44 45 46 47 48 49 50

167
ASUS43 KLSX 080957
RWRMO

WEATHER SUMMARY FOR MISSOURI
NATIONAL WEATHER SERVICE SPRINGFIELD MO
400 AM CST THU DEC 08 2016

NOTE: "FAIR" INDICATES FEW OR NO CLOUDS BELOW 12,000 FEET WITH NO
       SIGNIFICANT WEATHER AND/OR OBSTRUCTIONS TO VISIBILITY.
       CURRENT SKY AND/OR WEATHER CONDITIONS ARE NOT AVAILABLE FOR
       CHILLICOTHE AND FARMINGTON.

MOZ001>031-035>038-043-044-053-054-081100-
...NORTHERN AND WESTERN MISSOURI...

CITY           SKY/WX    TMP DP  RH WIND       PRES   REMARKS
KANSAS CTY INT CLEAR     16   6  65 NW9       30.50S WCI   4
LEE`S SUMMIT   CLEAR     18   8  65 NW10      30.50S WCI   6
ST JOSEPH      CLEAR     15   6  67 NW14      30.53R WCI   0
CHILLICOTHE      N/A     18   7  62 W8        30.48S WCI   8

$$
MOZ066>068-077>081-088>096-101>105-081100-
...SOUTHWEST MISSOURI...

CITY           SKY/WX    TMP DP  RH WIND       PRES   REMARKS
SPRINGFIELD    CLOUDY    20  12  71 W8        30.47F WCI  10
JOPLIN         CLOUDY    19  13  77 NW8       30.56R WCI   9

$$
MOZ032>034-039>042-045>050-055>058-069>072-081100-
...CENTRAL MISSOURI...

CITY           SKY/WX    TMP DP  RH WIND       PRES   REMARKS
COLUMBIA       NOT AVBL
JEFFERSON CITY PTCLDY    20  11  68 W10       30.47S WCI   9
ROLLA          CLEAR     19  11  70 W12       30.41S WCI   7
SEDALIA        CLEAR     19  10  68 W10       30.48S WCI   7
WARRENSBURG    CLEAR     19   9  63 W6        30.50S WCI  11

$$
MOZ051-052-059>065-081100-
...EAST CENTRAL MISSOURI...

CITY           SKY/WX    TMP DP  RH WIND       PRES   REMARKS
ST LOUIS INTL  CLEAR     24  10  55 W20       30.39F WCI  10

$$
MOZ072>076-082>087-097>100-106>115-081100-
...SOUTH CENTRAL AND SOUTHEAST MISSOURI...

CITY           SKY/WX    TMP DP  RH WIND       PRES   REMARKS
CAPE GIRARDEAU PTCLDY    29  19  66 NW12      30.40R WCI  19
POPLAR BLUFF   MOCLDY    30  19  63 NW10G21   30.41R WCI  21
WEST PLAINS    CLEAR     23  15  71 NW10      30.43S WCI  12

$$



USA.gov is the U.S. government's official web portal to all federal, state and local government web resources and services.